"read_dt","SO2 (ppb)","flags","PMT voltage (V)","lamp voltage (V)","lamp intensity (Hz)","internal temp (C)","react chamber temp (C)","sample flow (l/min)","pres (mmHg)","SO2 bkg (ppb)","SO2 coefficient"
2013-08-26 00:00:00,1181E-4,5C000000,-0724,0942,11172,028.7,045.4,0.389,734.8,01.18,0.508
2013-08-26 00:01:00,1770E-4,5C000000,-0724,0942,11234,028.7,045.4,0.389,734.7,01.18,0.508
2013-08-26 00:02:00,1293E-4,5C000000,-0724,0941,11024,028.7,045.3,0.389,734.8,01.18,0.508
2013-08-26 00:03:00,1353E-4,5C000000,-0724,0942,11126,028.7,045.3,0.389,734.8,01.18,0.508
2013-08-26 00:04:00,1196E-4,5C000000,-0724,0941,10995,028.7,045.4,0.389,734.7,01.18,0.508
2013-08-26 00:05:00,1695E-4,5C000000,-0724,0942,11100,028.7,045.4,0.389,734.7,01.18,0.508
2013-08-26 00:06:00,1362E-4,5C000000,-0724,0941,11030,028.7,045.4,0.389,734.7,01.18,0.508
2013-08-26 00:07:00,1183E-4,5C000000,-0724,0942,10898,028.7,045.4,0.389,734.7,01.18,0.508
2013-08-26 00:08:00,2382E-4,5C000000,-0724,0941,11130,028.7,045.4,0.389,734.7,01.18,0.508
2013-08-26 00:09:00,1910E-4,5C000000,-0724,0942,11164,028.7,045.4,0.389,734.8,01.18,0.508
2013-08-26 00:10:00,4878E-5,5C000000,-0724,0942,11202,028.7,045.4,0.389,734.7,01.18,0.508
2013-08-26 00:11:00,1620E-4,5C000000,-0724,0941,11181,028.7,045.4,0.389,734.7,01.18,0.508
2013-08-26 00:12:00,1571E-4,5C000000,-0724,0941,10933,028.7,045.4,0.389,734.7,01.18,0.508
2013-08-26 00:13:00,1741E-4,5C000000,-0724,0941,11026,028.7,045.4,0.389,734.7,01.18,0.508
2013-08-26 00:14:00,1668E-4,5C000000,-0724,0941,10992,028.7,045.4,0.389,734.7,01.18,0.508
2013-08-26 00:15:00,1273E-4,5C000000,-0724,0942,11046,028.7,045.4,0.389,734.7,01.18,0.508
2013-08-26 00:16:00,1558E-4,5C000000,-0724,0942,11252,028.7,045.4,0.389,734.7,01.18,0.508
2013-08-26 00:17:00,9303E-5,5C000000,-0724,0942,11065,028.7,045.4,0.389,734.7,01.18,0.508
2013-08-26 00:18:00,1460E-4,5C000000,-0724,0942,11139,028.7,045.4,0.389,734.7,01.18,0.508
2013-08-26 00:19:00,1749E-4,5C000000,-0724,0942,11074,028.7,045.4,0.389,734.7,01.18,0.508
2013-08-26 00:20:00,1646E-4,5C000000,-0724,0942,11108,028.7,045.4,0.389,734.7,01.18,0.508
2013-08-26 00:21:00,1390E-4,5C000000,-0724,0942,10962,028.7,045.4,0.389,734.7,01.18,0.508
2013-08-26 00:22:00,1112E-4,5C000000,-0724,0942,11065,028.7,045.4,0.389,734.7,01.18,0.508
2013-08-26 00:23:00,1635E-4,5C000000,-0724,0941,11113,028.7,045.4,0.389,734.7,01.18,0.508
2013-08-26 00:24:00,1960E-4,5C000000,-0724,0941,11078,028.7,045.4,0.389,734.6,01.18,0.508
2013-08-26 00:25:00,1897E-4,5C000000,-0724,0942,11143,028.7,045.4,0.389,734.7,01.18,0.508
2013-08-26 00:26:00,1052E-4,5C000000,-0724,0942,11042,028.7,045.4,0.389,734.6,01.18,0.508
2013-08-26 00:27:00,1201E-4,5C000000,-0724,0942,10933,028.7,045.4,0.389,734.6,01.18,0.508
2013-08-26 00:28:00,1552E-4,5C000000,-0724,0942,11233,028.7,045.4,0.389,734.5,01.18,0.508
2013-08-26 00:29:00,2015E-4,5C000000,-0724,0941,11049,028.7,045.4,0.388,734.6,01.18,0.508
2013-08-26 00:30:00,1482E-4,5C000000,-0724,0942,11178,028.7,045.3,0.389,734.6,01.18,0.508
2013-08-26 00:31:00,9745E-5,5C000000,-0724,0942,11138,028.7,045.4,0.389,734.6,01.18,0.508
2013-08-26 00:32:00,1447E-4,5C000000,-0724,0942,11076,028.7,045.4,0.389,734.7,01.18,0.508
2013-08-26 00:33:00,1027E-4,5C000000,-0724,0942,10914,028.7,045.4,0.388,734.7,01.18,0.508
2013-08-26 00:34:00,2062E-4,5C000000,-0724,0942,11215,028.7,045.4,0.389,734.7,01.18,0.508
2013-08-26 00:35:00,4413E-5,5C000000,-0724,0941,11117,028.7,045.4,0.389,734.7,01.18,0.508
2013-08-26 00:36:00,1603E-4,5C000000,-0724,0942,11069,028.7,045.4,0.389,734.7,01.18,0.508
2013-08-26 00:37:00,1640E-4,5C000000,-0724,0942,11120,028.7,045.4,0.389,734.7,01.18,0.508
2013-08-26 00:38:00,1125E-4,5C000000,-0724,0942,10975,028.7,045.4,0.389,734.7,01.18,0.508
2013-08-26 00:39:00,9094E-5,5C000000,-0724,0942,11088,028.7,045.4,0.389,734.7,01.18,0.508
2013-08-26 00:40:00,1477E-4,5C000000,-0724,0942,11048,028.7,045.3,0.389,734.6,01.18,0.508
2013-08-26 00:41:00,1398E-4,5C000000,-0724,0941,11186,028.7,045.3,0.389,734.6,01.18,0.508
2013-08-26 00:42:00,1629E-4,5C000000,-0724,0942,11222,028.7,045.3,0.389,734.5,01.18,0.508
2013-08-26 00:43:00,1050E-4,5C000000,-0724,0942,11170,028.7,045.4,0.389,734.6,01.18,0.508
2013-08-26 00:44:00,1088E-4,5C000000,-0724,0943,11263,028.7,045.4,0.388,734.6,01.18,0.508
2013-08-26 00:45:00,1897E-4,5C000000,-0724,0942,11034,028.7,045.4,0.389,734.6,01.18,0.508
2013-08-26 00:46:00,6635E-5,5C000000,-0724,0942,11069,028.7,045.4,0.389,734.5,01.18,0.508
2013-08-26 00:47:00,9082E-5,5C000000,-0724,0942,11091,028.7,045.4,0.389,734.5,01.18,0.508
2013-08-26 00:48:00,2232E-4,5C000000,-0724,0941,11126,028.7,045.4,0.388,734.5,01.18,0.508
2013-08-26 00:49:00,1743E-4,5C000000,-0724,0942,11146,028.7,045.4,0.389,734.5,01.18,0.508
2013-08-26 00:50:00,2189E-4,5C000000,-0724,0942,11047,028.7,045.4,0.389,734.4,01.18,0.508
2013-08-26 00:51:00,1301E-4,5C000000,-0724,0942,10916,028.7,045.4,0.388,734.5,01.18,0.508
2013-08-26 00:52:00,1790E-4,5C000000,-0724,0942,10991,028.7,045.4,0.389,734.5,01.18,0.508
2013-08-26 00:53:00,1874E-4,5C000000,-0724,0942,11072,028.7,045.4,0.389,734.4,01.18,0.508
2013-08-26 00:54:00,1723E-4,5C000000,-0724,0942,11143,028.7,045.4,0.388,734.5,01.18,0.508
2013-08-26 00:55:00,9631E-5,5C000000,-0724,0942,11097,028.7,045.3,0.389,734.3,01.18,0.508
2013-08-26 00:56:00,1554E-4,5C000000,-0724,0940,10869,028.7,045.4,0.389,734.5,01.18,0.508
2013-08-26 00:57:00,1838E-4,5C000000,-0724,0942,11103,028.7,045.4,0.389,734.5,01.18,0.508
2013-08-26 00:58:00,1963E-4,5C000000,-0724,0941,11181,028.7,045.4,0.389,734.4,01.18,0.508
2013-08-26 00:59:00,1586E-4,5C000000,-0724,0941,10997,028.7,045.4,0.389,734.4,01.18,0.508
2013-08-26 01:00:00,1853E-4,5C000000,-0724,0941,11101,028.7,045.4,0.389,734.4,01.18,0.508
2013-08-26 01:01:00,2059E-4,5C000000,-0724,0942,11160,028.7,045.4,0.388,734.4,01.18,0.508
2013-08-26 01:02:00,1367E-4,5C000000,-0724,0942,11254,028.7,045.4,0.389,734.4,01.18,0.508
2013-08-26 01:03:00,1510E-4,5C000000,-0724,0942,11049,028.7,045.4,0.389,734.5,01.18,0.508
2013-08-26 01:04:00,1288E-4,5C000000,-0724,0942,11121,028.7,045.4,0.388,734.4,01.18,0.508
2013-08-26 01:05:00,2172E-4,5C000000,-0724,0942,11220,028.7,045.4,0.389,734.4,01.18,0.508
2013-08-26 01:06:00,1623E-4,5C000000,-0724,0942,11050,028.7,045.4,0.389,734.4,01.18,0.508
2013-08-26 01:07:00,1867E-4,5C000000,-0724,0943,11080,028.7,045.4,0.389,734.3,01.18,0.508
2013-08-26 01:08:00,1351E-4,5C000000,-0724,0941,11087,028.7,045.4,0.388,734.4,01.18,0.508
2013-08-26 01:09:00,2227E-4,5C000000,-0724,0941,10986,028.7,045.4,0.389,734.3,01.18,0.508
2013-08-26 01:10:00,1638E-4,5C000000,-0724,0943,11042,028.7,045.4,0.389,734.4,01.18,0.508
2013-08-26 01:11:00,2009E-4,5C000000,-0724,0941,11068,028.8,045.4,0.388,734.4,01.18,0.508
2013-08-26 01:12:00,1080E-4,5C000000,-0724,0942,11013,028.8,045.4,0.389,734.2,01.18,0.508
2013-08-26 01:13:00,1809E-4,5C000000,-0724,0943,11151,028.8,045.4,0.389,734.3,01.18,0.508
2013-08-26 01:14:00,1494E-4,5C000000,-0724,0942,11132,028.8,045.4,0.389,734.3,01.18,0.508
2013-08-26 01:15:00,2047E-4,5C000000,-0724,0942,11174,028.8,045.4,0.388,734.3,01.18,0.508
2013-08-26 01:16:00,2072E-4,5C000000,-0724,0942,11194,028.8,045.4,0.389,734.3,01.18,0.508
2013-08-26 01:17:00,8749E-5,5C000000,-0724,0942,11097,028.8,045.4,0.389,734.3,01.18,0.508
2013-08-26 01:18:00,5197E-5,5C000000,-0724,0942,11119,028.8,045.4,0.388,734.3,01.18,0.508
2013-08-26 01:19:00,6387E-5,5C000000,-0724,0942,11045,028.8,045.4,0.388,734.3,01.18,0.508
2013-08-26 01:20:00,1332E-4,5C000000,-0724,0942,10971,028.8,045.4,0.389,734.2,01.18,0.508
2013-08-26 01:21:00,1294E-4,5C000000,-0724,0942,11118,028.8,045.4,0.389,734.2,01.18,0.508
2013-08-26 01:22:00,1405E-4,5C000000,-0724,0942,11103,028.8,045.4,0.388,734.3,01.18,0.508
2013-08-26 01:23:00,1081E-4,5C000000,-0724,0941,11083,028.8,045.4,0.389,734.3,01.18,0.508
2013-08-26 01:24:00,1645E-4,5C000000,-0724,0942,10966,028.8,045.4,0.389,734.3,01.18,0.508
2013-08-26 01:25:00,4556E-5,5C000000,-0724,0942,11044,028.8,045.4,0.388,734.1,01.19,0.508
2013-08-26 01:26:00,1168E-4,5C000000,-0724,0941,11168,028.8,045.4,0.388,734.1,01.19,0.508
2013-08-26 01:27:00,2046E-4,5C000000,-0724,0941,11088,028.8,045.4,0.389,734.1,01.19,0.508
2013-08-26 01:28:00,1916E-4,5C000000,-0724,0942,11145,028.8,045.4,0.389,734.2,01.18,0.508
2013-08-26 01:29:00,1705E-4,5C000000,-0724,0942,11096,028.8,045.3,0.388,734.3,01.18,0.508
2013-08-26 01:30:00,1708E-4,5C000000,-0724,0942,11114,028.8,045.4,0.389,734.3,01.18,0.508
2013-08-26 01:31:00,1417E-4,5C000000,-0724,0943,10981,028.8,045.4,0.389,734.2,01.18,0.508
2013-08-26 01:32:00,1902E-4,5C000000,-0724,0942,11207,028.8,045.4,0.388,734.2,01.18,0.508
2013-08-26 01:33:00,1440E-4,5C000000,-0724,0943,11004,028.8,045.4,0.388,734.2,01.18,0.508
2013-08-26 01:34:00,1454E-4,5C000000,-0724,0942,10946,028.9,045.4,0.389,734.3,01.18,0.508
2013-08-26 01:35:00,1897E-4,5C000000,-0724,0941,11071,028.9,045.4,0.388,734.3,01.18,0.508
2013-08-26 01:36:00,1088E-4,5C000000,-0724,0942,11051,028.9,045.4,0.388,734.2,01.18,0.508
2013-08-26 01:37:00,1835E-4,5C000000,-0724,0943,11102,028.9,045.4,0.388,734.2,01.18,0.508
2013-08-26 01:38:00,1754E-4,5C000000,-0724,0942,11133,028.9,045.4,0.389,734.3,01.18,0.508
2013-08-26 01:39:00,1241E-4,5C000000,-0724,0942,11074,028.9,045.4,0.388,734.2,01.18,0.508
2013-08-26 01:40:00,9275E-5,5C000000,-0724,0942,11125,028.9,045.4,0.388,734.2,01.18,0.508
2013-08-26 01:41:00,1907E-4,5C000000,-0724,0942,11131,028.9,045.4,0.389,734.2,01.18,0.508
2013-08-26 01:42:00,9277E-5,5C000000,-0724,0942,11096,028.9,045.4,0.388,734.2,01.18,0.508
2013-08-26 01:43:00,1128E-4,5C000000,-0724,0942,11123,028.9,045.4,0.388,734.1,01.19,0.508
2013-08-26 01:44:00,1212E-4,5C000000,-0724,0942,11092,028.9,045.4,0.388,734.2,01.18,0.508
2013-08-26 01:45:00,1500E-4,5C000000,-0724,0942,11114,028.9,045.4,0.389,734.2,01.18,0.508
2013-08-26 01:46:00,1310E-4,5C000000,-0724,0941,11114,028.9,045.4,0.388,734.2,01.18,0.508
2013-08-26 01:47:00,1452E-4,5C000000,-0724,0942,11028,028.9,045.4,0.388,734.2,01.18,0.508
2013-08-26 01:48:00,1229E-4,5C000000,-0724,0941,11132,028.9,045.3,0.389,734.3,01.18,0.508
2013-08-26 01:49:00,1012E-4,5C000000,-0724,0943,11099,028.9,045.4,0.388,734.2,01.18,0.508
2013-08-26 01:50:00,2053E-4,5C000000,-0724,0942,10933,028.9,045.4,0.388,734.3,01.18,0.508
2013-08-26 01:51:00,1428E-4,5C000000,-0724,0942,11107,028.9,045.4,0.388,734.2,01.18,0.508
2013-08-26 01:52:00,8934E-5,5C000000,-0724,0941,11190,028.9,045.4,0.389,734.1,01.19,0.508
2013-08-26 01:53:00,2266E-4,5C000000,-0724,0942,11120,029.0,045.4,0.388,734.2,01.18,0.508
2013-08-26 01:54:00,1085E-4,5C000000,-0724,0943,11116,029.0,045.4,0.388,734.2,01.18,0.508
2013-08-26 01:55:00,1553E-4,5C000000,-0724,0942,11110,029.0,045.4,0.388,734.2,01.18,0.508
2013-08-26 01:56:00,9371E-5,5C000000,-0724,0942,11113,029.0,045.4,0.389,734.2,01.18,0.508
2013-08-26 01:57:00,2197E-4,5C000000,-0724,0942,11145,029.0,045.4,0.388,734.2,01.18,0.508
2013-08-26 01:58:00,1268E-4,5C000000,-0724,0942,11060,029.0,045.4,0.388,734.3,01.18,0.508
2013-08-26 01:59:00,1679E-4,5C000000,-0724,0942,11004,028.9,045.4,0.388,734.2,01.18,0.508
2013-08-26 02:00:00,2161E-4,5C000000,-0724,0943,10935,028.9,045.4,0.389,734.2,01.18,0.508
2013-08-26 02:01:00,1352E-4,5C000000,-0724,0941,11107,029.0,045.3,0.388,734.3,01.18,0.508
2013-08-26 02:02:00,1647E-4,5C000000,-0724,0942,11137,029.0,045.4,0.388,734.2,01.18,0.508
2013-08-26 02:03:00,1244E-4,5C000000,-0724,0942,10986,029.0,045.4,0.388,734.2,01.18,0.508
2013-08-26 02:04:00,1511E-4,5C000000,-0724,0942,11140,029.0,045.4,0.388,734.2,01.18,0.508
2013-08-26 02:05:00,1490E-4,5C000000,-0724,0942,11045,029.0,045.4,0.388,734.2,01.18,0.508
2013-08-26 02:06:00,8450E-5,5C000000,-0724,0942,11117,029.0,045.4,0.388,734.2,01.18,0.508
2013-08-26 02:07:00,2105E-4,5C000000,-0724,0942,11204,029.0,045.4,0.388,734.3,01.18,0.508
2013-08-26 02:08:00,1390E-4,5C000000,-0724,0941,11089,029.0,045.4,0.388,734.2,01.18,0.508
2013-08-26 02:09:00,9744E-5,5C000000,-0724,0943,11084,029.0,045.4,0.388,734.1,01.19,0.508
2013-08-26 02:10:00,2423E-4,5C000000,-0724,0943,11185,029.0,045.4,0.388,734.2,01.18,0.508
2013-08-26 02:11:00,1589E-4,5C000000,-0724,0943,11135,029.0,045.4,0.388,734.2,01.18,0.508
2013-08-26 02:12:00,1884E-4,5C000000,-0724,0942,11205,029.0,045.4,0.388,734.2,01.18,0.508
2013-08-26 02:13:00,1562E-4,5C000000,-0724,0943,11087,029.0,045.4,0.388,734.1,01.19,0.508
2013-08-26 02:14:00,1563E-4,5C000000,-0724,0942,11058,029.0,045.4,0.388,734.2,01.18,0.508
2013-08-26 02:15:00,8299E-5,5C000000,-0724,0942,11089,029.0,045.4,0.388,734.2,01.18,0.508
2013-08-26 02:16:00,1227E-4,5C000000,-0724,0943,11150,029.0,045.4,0.388,734.2,01.18,0.508
2013-08-26 02:17:00,1247E-4,5C000000,-0724,0942,11175,029.0,045.4,0.388,734.3,01.18,0.508
2013-08-26 02:18:00,7018E-5,5C000000,-0724,0943,11105,029.0,045.4,0.388,734.2,01.18,0.508
2013-08-26 02:19:00,7182E-5,5C000000,-0724,0942,11056,029.0,045.4,0.388,734.2,01.18,0.508
2013-08-26 02:20:00,1478E-4,5C000000,-0724,0943,11123,029.0,045.4,0.388,734.2,01.18,0.508
2013-08-26 02:21:00,1680E-4,5C000000,-0724,0942,10932,029.0,045.4,0.388,734.2,01.18,0.508
2013-08-26 02:22:00,2408E-4,5C000000,-0724,0942,11053,029.0,045.4,0.388,734.2,01.18,0.508
2013-08-26 02:23:00,1501E-4,5C000000,-0724,0942,11122,029.0,045.4,0.388,734.1,01.19,0.508
2013-08-26 02:24:00,1784E-4,5C000000,-0724,0943,11131,029.0,045.4,0.388,734.2,01.18,0.508
2013-08-26 02:25:00,1862E-4,5C000000,-0724,0943,11099,029.0,045.4,0.388,734.2,01.18,0.508
2013-08-26 02:26:00,1724E-4,5C000000,-0724,0943,11210,029.1,045.4,0.388,734.3,01.18,0.508
2013-08-26 02:27:00,2321E-4,5C000000,-0724,0943,11211,029.1,045.4,0.388,734.3,01.18,0.508
2013-08-26 02:28:00,1090E-4,5C000000,-0724,0941,11077,029.1,045.4,0.388,734.2,01.18,0.508
2013-08-26 02:29:00,6535E-5,5C000000,-0724,0942,11115,029.1,045.4,0.388,734.2,01.18,0.508
2013-08-26 02:30:00,2233E-4,5C000000,-0724,0942,11166,029.1,045.4,0.388,734.2,01.18,0.508
2013-08-26 02:31:00,1462E-4,5C000000,-0724,0942,11086,029.1,045.4,0.388,734.2,01.18,0.508
2013-08-26 02:32:00,1569E-4,5C000000,-0724,0942,11046,029.1,045.4,0.388,734.1,01.19,0.508
2013-08-26 02:33:00,2194E-4,5C000000,-0724,0942,11098,029.1,045.4,0.388,734.1,01.19,0.508
2013-08-26 02:34:00,1517E-4,5C000000,-0724,0943,10989,029.1,045.4,0.388,734.2,01.18,0.508
2013-08-26 02:35:00,9625E-5,5C000000,-0724,0942,11081,029.1,045.4,0.388,734.1,01.19,0.508
2013-08-26 02:36:00,7931E-5,5C000000,-0724,0942,11060,029.1,045.4,0.388,734.2,01.18,0.508
2013-08-26 02:37:00,1584E-4,5C000000,-0724,0942,11004,029.1,045.4,0.388,734.1,01.19,0.508
2013-08-26 02:38:00,1262E-4,5C000000,-0724,0942,11157,029.1,045.4,0.388,734.2,01.18,0.508
2013-08-26 02:39:00,1007E-4,5C000000,-0724,0943,11141,029.1,045.4,0.388,734.2,01.18,0.508
2013-08-26 02:40:00,8133E-5,5C000000,-0724,0942,11077,029.1,045.4,0.388,734.3,01.18,0.508
2013-08-26 02:41:00,1671E-4,5C000000,-0724,0942,11115,029.1,045.4,0.387,734.2,01.18,0.508
2013-08-26 02:42:00,7806E-5,5C000000,-0724,0942,11049,029.1,045.4,0.388,734.2,01.18,0.508
2013-08-26 02:43:00,1055E-4,5C000000,-0724,0942,11192,029.1,045.4,0.388,734.2,01.18,0.508
2013-08-26 02:44:00,1600E-4,5C000000,-0724,0943,10861,029.1,045.4,0.388,734.1,01.19,0.508
2013-08-26 02:45:00,2447E-4,5C000000,-0724,0942,10850,029.1,045.4,0.388,734.1,01.19,0.508
2013-08-26 02:46:00,1352E-4,5C000000,-0724,0942,11146,029.1,045.4,0.388,734.2,01.18,0.508
2013-08-26 02:47:00,1897E-4,5C000000,-0724,0942,11005,029.1,045.4,0.388,734.3,01.18,0.508
2013-08-26 02:48:00,8203E-5,5C000000,-0724,0942,11018,029.1,045.4,0.388,734.2,01.18,0.508
2013-08-26 02:49:00,1688E-4,5C000000,-0724,0942,11033,029.1,045.4,0.388,734.3,01.18,0.508
2013-08-26 02:50:00,6271E-5,5C000000,-0724,0942,11043,029.1,045.4,0.387,734.2,01.18,0.508
2013-08-26 02:51:00,1373E-4,5C000000,-0724,0942,10989,029.1,045.4,0.388,734.1,01.19,0.508
2013-08-26 02:52:00,1475E-4,5C000000,-0724,0943,11122,029.1,045.4,0.388,734.1,01.19,0.508
2013-08-26 02:53:00,2132E-4,5C000000,-0724,0942,11147,029.1,045.4,0.388,734.2,01.18,0.508
2013-08-26 02:54:00,1763E-4,5C000000,-0724,0942,11066,029.1,045.4,0.387,734.1,01.19,0.508
2013-08-26 02:55:00,1453E-4,5C000000,-0724,0942,11102,029.1,045.4,0.388,734.0,01.19,0.508
2013-08-26 02:56:00,1980E-4,5C000000,-0724,0942,10990,029.1,045.4,0.388,734.1,01.19,0.508
2013-08-26 02:57:00,1356E-4,5C000000,-0724,0942,11125,029.1,045.4,0.388,734.0,01.19,0.508
2013-08-26 02:58:00,9215E-5,5C000000,-0724,0943,11056,029.1,045.4,0.388,734.1,01.19,0.508
2013-08-26 02:59:00,2211E-4,5C000000,-0724,0942,11018,029.1,045.4,0.388,734.2,01.18,0.508
2013-08-26 03:00:00,1001E-4,5C000000,-0724,0943,11227,029.1,045.4,0.388,734.0,01.19,0.508
2013-08-26 03:01:00,2444E-4,5C000000,-0724,0942,11163,029.1,045.4,0.388,734.0,01.19,0.508
2013-08-26 03:02:00,1423E-4,5C000000,-0724,0943,11184,029.1,045.4,0.388,734.1,01.19,0.508
2013-08-26 03:03:00,9359E-5,5C000000,-0724,0942,11078,029.1,045.4,0.387,734.0,01.19,0.508
2013-08-26 03:04:00,1880E-4,5C000000,-0724,0942,11231,029.1,045.4,0.388,734.0,01.19,0.508
2013-08-26 03:05:00,2265E-4,5C000000,-0724,0942,10960,029.1,045.4,0.388,733.9,01.19,0.508
2013-08-26 03:06:00,9088E-5,5C000000,-0724,0942,10994,029.1,045.4,0.388,734.0,01.19,0.508
2013-08-26 03:07:00,1806E-4,5C000000,-0724,0943,10968,029.1,045.4,0.387,733.9,01.19,0.508
2013-08-26 03:08:00,1480E-4,5C000000,-0724,0942,11160,029.1,045.4,0.388,733.9,01.19,0.508
2013-08-26 03:09:00,1892E-4,5C000000,-0724,0943,11141,029.1,045.4,0.388,734.0,01.19,0.508
2013-08-26 03:10:00,1862E-4,5C000000,-0724,0943,11126,029.1,045.4,0.388,734.0,01.19,0.508
2013-08-26 03:11:00,2019E-4,5C000000,-0724,0942,11137,029.1,045.4,0.387,733.8,01.19,0.508
2013-08-26 03:12:00,2608E-4,5C000000,-0724,0942,11048,029.1,045.4,0.388,733.9,01.19,0.508
2013-08-26 03:13:00,1554E-4,5C000000,-0724,0943,11116,029.1,045.4,0.388,734.0,01.19,0.508
2013-08-26 03:14:00,1680E-4,5C000000,-0724,0942,11122,029.1,045.4,0.388,733.9,01.19,0.508
2013-08-26 03:15:00,9510E-5,5C000000,-0724,0944,11023,029.2,045.4,0.387,733.9,01.19,0.508
2013-08-26 03:16:00,1236E-4,5C000000,-0724,0942,11215,029.2,045.4,0.388,734.0,01.19,0.508
2013-08-26 03:17:00,1666E-4,5C000000,-0724,0943,11158,029.1,045.4,0.388,734.1,01.19,0.508
2013-08-26 03:18:00,1454E-4,5C000000,-0724,0942,11131,029.1,045.4,0.388,733.9,01.19,0.508
2013-08-26 03:19:00,1792E-4,5C000000,-0724,0942,11138,029.1,045.4,0.387,733.9,01.19,0.508
2013-08-26 03:20:00,1714E-4,5C000000,-0724,0943,11138,029.1,045.4,0.387,734.0,01.19,0.508
2013-08-26 03:21:00,2265E-4,5C000000,-0724,0942,11104,029.1,045.4,0.388,734.0,01.19,0.508
2013-08-26 03:22:00,7506E-5,5C000000,-0724,0943,11073,029.1,045.4,0.388,734.0,01.19,0.508
2013-08-26 03:23:00,2000E-4,5C000000,-0724,0942,10975,029.2,045.4,0.387,734.0,01.19,0.508
2013-08-26 03:24:00,1962E-4,5C000000,-0724,0942,11156,029.2,045.4,0.387,733.9,01.19,0.508
2013-08-26 03:25:00,1658E-4,5C000000,-0724,0942,10968,029.2,045.4,0.388,734.0,01.19,0.508
2013-08-26 03:26:00,8829E-5,5C000000,-0724,0943,11005,029.2,045.4,0.388,734.1,01.19,0.508
2013-08-26 03:27:00,1095E-4,5C000000,-0724,0943,11004,029.2,045.4,0.388,734.0,01.19,0.508
2013-08-26 03:28:00,8500E-5,5C000000,-0724,0943,11066,029.2,045.4,0.387,733.9,01.19,0.508
2013-08-26 03:29:00,2270E-4,5C000000,-0724,0943,11041,029.2,045.4,0.388,733.9,01.19,0.508
2013-08-26 03:30:00,8836E-5,5C000000,-0724,0943,11197,029.2,045.4,0.388,733.9,01.19,0.508
2013-08-26 03:31:00,1315E-4,5C000000,-0724,0943,11251,029.2,045.4,0.388,734.0,01.19,0.508
2013-08-26 03:32:00,9363E-5,5C000000,-0724,0942,11163,029.2,045.4,0.387,734.0,01.19,0.508
2013-08-26 03:33:00,2067E-4,5C000000,-0724,0943,11023,029.2,045.4,0.387,734.0,01.19,0.508
2013-08-26 03:34:00,1832E-4,5C000000,-0724,0943,11140,029.2,045.4,0.388,733.9,01.19,0.508
2013-08-26 03:35:00,2357E-4,5C000000,-0724,0943,11007,029.2,045.4,0.388,733.9,01.19,0.508
2013-08-26 03:36:00,2252E-4,5C000000,-0724,0943,11126,029.2,045.4,0.387,734.0,01.19,0.508
2013-08-26 03:37:00,1278E-4,5C000000,-0724,0942,11063,029.2,045.4,0.387,734.0,01.19,0.508
2013-08-26 03:38:00,1993E-4,5C000000,-0724,0942,11148,029.2,045.4,0.388,734.0,01.19,0.508
2013-08-26 03:39:00,1158E-4,5C000000,-0724,0943,11138,029.2,045.4,0.388,733.9,01.19,0.508
2013-08-26 03:40:00,1093E-4,5C000000,-0724,0943,11063,029.2,045.4,0.388,734.0,01.19,0.508
2013-08-26 03:41:00,2305E-4,5C000000,-0724,0942,11051,029.2,045.4,0.387,734.0,01.19,0.508
2013-08-26 03:42:00,1862E-4,5C000000,-0724,0942,11030,029.2,045.4,0.387,734.1,01.19,0.508
2013-08-26 03:43:00,-4084E-6,5C000000,-0724,0943,10997,029.2,045.4,0.388,734.1,01.19,0.508
2013-08-26 03:44:00,1025E-4,5C000000,-0724,0943,11253,029.3,045.4,0.388,734.1,01.19,0.508
2013-08-26 03:45:00,1400E-4,5C000000,-0724,0943,11116,029.2,045.4,0.387,734.1,01.19,0.508
2013-08-26 03:46:00,1669E-4,5C000000,-0724,0942,11202,029.3,045.4,0.387,734.1,01.19,0.508
2013-08-26 03:47:00,4928E-5,5C000000,-0724,0942,11143,029.2,045.4,0.387,734.1,01.19,0.508
2013-08-26 03:48:00,1136E-4,5C000000,-0724,0941,11134,029.3,045.4,0.388,734.1,01.19,0.508
2013-08-26 03:49:00,1086E-4,5C000000,-0724,0942,11151,029.3,045.4,0.388,734.1,01.19,0.508
2013-08-26 03:50:00,9312E-5,5C000000,-0724,0943,11094,029.3,045.4,0.387,734.1,01.19,0.508
2013-08-26 03:51:00,9906E-5,5C000000,-0724,0943,11093,029.3,045.4,0.387,734.1,01.19,0.508
2013-08-26 03:52:00,1975E-4,5C000000,-0724,0942,11023,029.3,045.4,0.388,734.0,01.19,0.508
2013-08-26 03:53:00,1898E-4,5C000000,-0724,0942,10880,029.3,045.4,0.388,734.1,01.19,0.508
2013-08-26 03:54:00,1069E-4,5C000000,-0724,0944,11114,029.3,045.4,0.387,734.0,01.19,0.508
2013-08-26 03:55:00,1796E-4,5C000000,-0724,0943,10888,029.3,045.4,0.387,734.1,01.19,0.508
2013-08-26 03:56:00,1141E-4,5C000000,-0724,0943,11195,029.3,045.4,0.387,734.1,01.19,0.508
2013-08-26 03:57:00,1167E-4,5C000000,-0724,0942,11080,029.3,045.4,0.388,734.1,01.19,0.508
2013-08-26 03:58:00,1463E-4,5C000000,-0724,0944,11251,029.3,045.4,0.387,734.0,01.19,0.508
2013-08-26 03:59:00,8903E-5,5C000000,-0724,0943,11038,029.3,045.4,0.387,734.0,01.19,0.508
2013-08-26 04:00:00,2077E-4,5C000000,-0724,0943,11153,029.3,045.4,0.387,734.0,01.19,0.508
2013-08-26 04:01:00,1087E-4,5C000000,-0724,0944,11060,029.3,045.4,0.387,734.0,01.19,0.508
2013-08-26 04:02:00,1262E-4,5C000000,-0724,0943,11092,029.4,045.4,0.388,734.0,01.19,0.508
2013-08-26 04:03:00,7506E-5,5C000000,-0724,0943,11110,029.3,045.4,0.387,734.0,01.19,0.508
2013-08-26 04:04:00,7187E-5,5C000000,-0724,0943,11108,029.3,045.4,0.387,734.0,01.19,0.508
2013-08-26 04:05:00,1851E-4,5C000000,-0724,0944,10987,029.3,045.4,0.387,734.0,01.19,0.508
2013-08-26 04:06:00,1342E-4,5C000000,-0724,0943,11043,029.3,045.4,0.388,733.9,01.19,0.508
2013-08-26 04:07:00,1607E-4,5C000000,-0724,0943,11176,029.4,045.4,0.388,733.9,01.19,0.508
2013-08-26 04:08:00,1022E-4,5C000000,-0724,0943,10942,029.3,045.4,0.387,733.9,01.19,0.508
2013-08-26 04:09:00,1510E-4,5C000000,-0724,0943,10921,029.4,045.4,0.387,733.9,01.19,0.508
2013-08-26 04:10:00,1984E-4,5C000000,-0724,0944,11207,029.4,045.4,0.387,733.8,01.19,0.508
2013-08-26 04:11:00,1254E-4,5C000000,-0724,0943,11035,029.4,045.4,0.388,733.9,01.19,0.508
2013-08-26 04:12:00,1690E-4,5C000000,-0724,0943,11059,029.4,045.4,0.387,733.8,01.19,0.508
2013-08-26 04:13:00,2205E-4,5C000000,-0724,0943,11038,029.4,045.4,0.387,733.9,01.19,0.508
2013-08-26 04:14:00,1839E-4,5C000000,-0724,0943,11120,029.4,045.4,0.387,733.8,01.19,0.508
2013-08-26 04:15:00,2122E-4,5C000000,-0724,0942,11043,029.4,045.4,0.388,733.8,01.19,0.508
2013-08-26 04:16:00,9840E-5,5C000000,-0724,0943,11144,029.4,045.4,0.387,733.7,01.19,0.508
2013-08-26 04:17:00,1776E-4,5C000000,-0724,0942,11178,029.4,045.4,0.387,733.8,01.19,0.508
2013-08-26 04:18:00,1898E-4,5C000000,-0724,0944,11032,029.4,045.4,0.387,733.7,01.19,0.508
2013-08-26 04:19:00,1342E-4,5C000000,-0724,0943,11129,029.4,045.4,0.387,733.6,01.19,0.508
2013-08-26 04:20:00,1849E-4,5C000000,-0724,0943,11019,029.4,045.4,0.387,733.7,01.19,0.508